Content
SEND FEEDBACK

Daily
Averages
Monthly
Summary
United States of America

BOSTON, MASSACHUSETTS


Home > North America > United States > Massachusetts
Elevation: 4 feet     Latitude: 42 22N     Longitude: 071 02W

WEATHER
 
SELECT A DAY
Number of Records: 202,798;   Date Range: 1/1/95 - 8/14/14
 
SHARE

PRINT THIS DATA

[ ← Previous Day ]
WEATHER ALMANAC - MAY 11, 2013
[ Next Day → ]
[ °C ]   °F
Weather ElementAverageHighLow
Temperature63.9 °F72 °F (12:54 pm)59 °F (6:54 am)
Dewpoint58.3 °F61 °F (1:54 pm)53.1 °F (1:54 am)
Humidity82.5 %94 % (11:02 pm)64 % (12:08 pm)
Barometer29.78 in29.90 in (1:54 am)29.71 in (11:54 pm)
Wind Speed13.5 mph20.7 mph (3:43 pm)
Wind Gust28.8 mph (1:54 pm)
Weather ElementAverage
Visibility9.8 mi
Wind DirectionSSW (203.5 °)

Weather ElementTotal
Precipitation0.02 in
Cooling Degree Days0.5 (Base 65)
Growing Degree Days15.5 (Base 50)
Averaged from 37 records on May 11, 2013
WEATHER CONDITIONS BREAKOUT
WIND DIRECTION BREAKOUT
WEATHER BY HOUR - MAY 11, 2013
[ °C ]   °F
Local TimeTemperatureDewpointHumidityBarometerVisibilityWind DirectionWind SpeedGust SpeedPrecipitationEventsConditions
1:54 AM62.1 °F53.1 °F72 %29.90 in10.0 miSSW (200°)9.2 mphMostly Cloudy
2:54 AM61.0 °F53.1 °F75 %29.88 in10.0 miSSW (200°)8.1 mphPartly Cloudy
3:54 AM60.1 °F54.0 °F80 %29.86 in10.0 miSouth (190°)5.8 mphClear
4:54 AM60.1 °F55.9 °F86 %29.83 in10.0 miSouth (180°)8.1 mphClear
5:54 AM60.1 °F55.9 °F86 %29.85 in10.0 miSSW (210°)11.5 mphMostly Cloudy
6:54 AM59.0 °F55.9 °F90 %29.82 in8.0 miSouth (180°)11.5 mph0.02 inRainLight Rain
7:43 AM60.8 °F57.2 °F88 %29.84 in8.0 miSW (220°)8.1 mph0.00 inOvercast
7:54 AM60.1 °F57.0 °F90 %29.83 in9.0 miSSW (210°)6.9 mph0.00 inOvercast
8:54 AM63.0 °F57.9 °F84 %29.81 in10.0 miSSW (210°)11.5 mph0.00 inOvercast
9:54 AM66.0 °F59.0 °F78 %29.80 in10.0 miSW (220°)11.5 mph20.7 mphOvercast
10:54 AM68.0 °F59.0 °F73 %29.80 in10.0 miSW (220°)15.0 mphOvercast
11:01 AM69.8 °F59.0 °F68 %29.80 in10.0 miSW (220°)16.1 mph25.3 mphOvercast
11:54 AM70.0 °F59.0 °F68 %29.79 in10.0 miSSW (200°)16.1 mphOvercast
12:08 PM71.6 °F59.0 °F64 %29.78 in10.0 miSSW (210°)16.1 mph21.9 mphOvercast
12:54 PM72.0 °F59.0 °F64 %29.77 in10.0 miSSW (210°)16.1 mphOvercast
1:54 PM66.9 °F61.0 °F81 %29.78 in8.0 miSSW (210°)19.6 mph28.8 mph0.00 inRainLight Rain
2:27 PM66.2 °F60.8 °F83 %29.77 in10.0 miSSW (210°)18.4 mph25.3 mph0.00 inRainLight Rain
2:54 PM64.9 °F60.1 °F84 %29.76 in10.0 miSSW (210°)17.3 mph26.5 mph0.00 inOvercast
3:18 PM64.4 °F59.0 °F83 %29.76 in10.0 miSSW (200°)18.4 mph24.2 mphOvercast
3:43 PM64.4 °F59.0 °F83 %29.75 in10.0 miSSW (200°)20.7 mph26.5 mphOvercast
3:54 PM64.9 °F59.0 °F81 %29.75 in10.0 miSSW (210°)16.1 mphOvercast
4:40 PM64.4 °F59.0 °F83 %29.74 in10.0 miSSW (200°)12.7 mph0.00 inOvercast
4:54 PM64.0 °F59.0 °F84 %29.74 in10.0 miSSW (200°)12.7 mph0.00 inOvercast
5:05 PM64.4 °F59.0 °F83 %29.75 in10.0 miSSW (200°)15.0 mph21.9 mph0.00 inRainLight Rain
5:46 PM64.4 °F59.0 °F83 %29.75 in10.0 miSSW (200°)12.7 mph0.00 inOvercast
5:54 PM64.0 °F59.0 °F84 %29.75 in10.0 miSSW (210°)16.1 mph0.00 inOvercast
6:26 PM64.4 °F59.0 °F83 %29.75 in10.0 miSSW (210°)19.6 mph26.5 mph0.00 inRainLight Rain
6:54 PM63.0 °F59.0 °F87 %29.75 in8.0 miSSW (200°)16.1 mph0.00 inRainLight Rain
7:31 PM62.6 °F59.0 °F88 %29.75 in10.0 miSSW (210°)18.4 mph0.00 inOvercast
7:47 PM62.6 °F59.0 °F88 %29.75 in10.0 miSSW (200°)15.0 mph0.00 inOvercast
7:54 PM63.0 °F59.0 °F87 %29.75 in10.0 miSSW (200°)13.8 mph0.00 inOvercast
8:25 PM62.6 °F59.0 °F88 %29.75 in10.0 miSSW (200°)11.5 mphOvercast
8:54 PM62.1 °F59.0 °F90 %29.74 in10.0 miSSW (200°)8.1 mphOvercast
9:54 PM62.1 °F59.0 °F90 %29.73 in10.0 miSouth (180°)12.7 mphOvercast
10:54 PM62.1 °F59.0 °F90 %29.72 in10.0 miSouth (190°)12.7 mphOvercast
11:02 PM60.8 °F59.0 °F94 %29.72 in10.0 miSSW (200°)10.4 mphOvercast
11:54 PM62.1 °F59.0 °F90 %29.71 in10.0 miSSW (210°)8.1 mphOvercast
Hourly data recorded from KBOS, located miles away from Boston, Massachusetts







STORIES FROM OUR PARTNERS